GFSGBSN_prec_pwat_195.txt.gz
Precipitable_Water
0.51 0.49 0.51 0.54 0.53 0.62 0.85 1.00 1.27 1.44 1.49 1.42 1.19 1.07 0.89 0.86 0.69 0.66 0.72 0.76 0.76 0.77 0.78 0.81 0.81 0.80 0.69 0.49 0.38 0.66 0.71 0.73 0.69 0.64 0.58 0.56 0.51 0.50 0.43 0.48 0.52 0.49 0.51 0.56 0.59 0.61 0.59
0.46 0.49 0.51 0.52 0.53 0.54 0.68 0.83 1.05 1.28 1.43 1.49 1.44 1.20 1.04 0.87 0.85 0.69 0.68 0.73 0.76 0.77 0.78 0.81 0.83 0.82 0.61 0.36 0.53 0.60 0.66 0.71 0.72 0.65 0.61 0.64 0.59 0.64 0.55 0.52 0.52 0.57 0.57 0.58 0.61 0.60 0.61
0.48 0.47 0.48 0.54 0.53 0.56 0.58 0.68 0.83 1.11 1.30 1.40 1.47 1.43 1.21 1.01 0.90 0.82 0.71 0.73 0.75 0.78 0.81 0.82 0.83 0.77 0.58 0.42 0.58 0.72 0.76 0.67 0.76 0.73 0.63 0.73 0.75 0.66 0.64 0.56 0.65 0.63 0.53 0.57 0.57 0.57 0.58
0.54 0.52 0.49 0.52 0.57 0.57 0.60 0.61 0.68 0.82 1.21 1.36 1.35 1.41 1.34 1.25 0.95 0.91 0.77 0.75 0.76 0.80 0.84 0.84 0.86 0.76 0.48 0.66 0.65 0.61 0.65 0.62 0.73 0.77 0.74 0.81 0.80 0.69 0.64 0.69 0.62 0.56 0.53 0.40 0.51 0.56 0.57
0.57 0.56 0.56 0.54 0.54 0.56 0.57 0.58 0.62 0.65 0.88 1.27 1.34 1.37 1.40 1.35 1.18 0.89 0.85 0.78 0.80 0.87 0.87 0.88 0.75 0.68 0.47 0.68 0.53 0.47 0.53 0.47 0.63 0.75 0.78 0.81 0.76 0.62 0.62 0.52 0.48 0.47 0.36 0.40 0.45 0.55 0.56
0.59 0.58 0.60 0.61 0.57 0.53 0.54 0.56 0.58 0.63 0.73 0.98 1.28 1.33 1.36 1.42 1.38 1.14 0.90 0.84 0.90 0.91 0.87 0.87 0.78 0.62 0.61 0.43 0.50 0.52 0.52 0.53 0.57 0.67 0.70 0.67 0.61 0.51 0.53 0.48 0.33 0.37 0.37 0.41 0.43 0.52 0.54
0.59 0.60 0.60 0.61 0.60 0.59 0.54 0.54 0.53 0.60 0.65 0.77 1.04 1.23 1.30 1.34 1.40 1.41 1.00 0.83 0.68 0.65 0.70 0.51 0.50 0.47 0.45 0.60 0.62 0.54 0.66 0.56 0.62 0.62 0.51 0.56 0.47 0.40 0.45 0.51 0.50 0.47 0.41 0.41 0.48 0.57 0.52
0.53 0.54 0.56 0.58 0.60 0.63 0.59 0.55 0.56 0.58 0.64 0.70 0.81 1.14 1.25 1.28 1.34 1.37 1.18 0.70 0.55 0.63 0.50 0.62 0.58 0.59 0.52 0.59 0.50 0.57 0.67 0.55 0.50 0.41 0.52 0.52 0.40 0.49 0.56 0.57 0.52 0.48 0.45 0.43 0.49 0.55 0.51
0.51 0.50 0.52 0.53 0.55 0.58 0.60 0.59 0.56 0.56 0.59 0.65 0.78 0.89 1.19 1.24 1.28 1.26 1.13 0.89 0.91 0.80 0.58 0.57 0.57 0.48 0.51 0.53 0.46 0.49 0.59 0.57 0.50 0.46 0.49 0.45 0.46 0.59 0.58 0.54 0.50 0.50 0.47 0.47 0.48 0.52 0.50
0.39 0.40 0.48 0.51 0.50 0.51 0.52 0.53 0.53 0.50 0.57 0.59 0.68 0.84 1.05 1.20 1.08 1.13 1.04 1.15 1.04 0.89 0.53 0.51 0.55 0.54 0.57 0.54 0.41 0.63 0.63 0.59 0.55 0.47 0.56 0.53 0.58 0.59 0.58 0.55 0.55 0.45 0.55 0.54 0.50 0.45 0.38
0.43 0.38 0.38 0.42 0.41 0.44 0.44 0.46 0.45 0.47 0.49 0.58 0.62 0.79 1.00 1.18 1.03 0.97 1.08 1.23 1.11 0.96 0.32 0.52 0.57 0.71 0.54 0.47 0.45 0.42 0.65 0.63 0.51 0.55 0.59 0.45 0.51 0.55 0.54 0.57 0.64 0.53 0.60 0.57 0.54 0.48 0.46
0.54 0.49 0.40 0.39 0.40 0.39 0.41 0.40 0.44 0.45 0.46 0.53 0.59 0.77 0.90 1.04 1.08 1.07 1.21 1.19 1.01 0.53 0.31 0.47 0.54 0.52 0.51 0.50 0.46 0.51 0.51 0.66 0.65 0.57 0.58 0.55 0.68 0.61 0.60 0.64 0.62 0.62 0.57 0.58 0.59 0.50 0.36
0.52 0.46 0.37 0.37 0.38 0.37 0.40 0.41 0.41 0.44 0.45 0.49 0.56 0.75 0.82 0.92 0.85 1.19 1.17 0.96 0.49 0.36 0.53 0.43 0.47 0.52 0.51 0.46 0.44 0.51 0.49 0.48 0.46 0.42 0.43 0.55 0.56 0.63 0.66 0.59 0.63 0.59 0.54 0.44 0.40 0.37 0.32
0.43 0.42 0.46 0.48 0.48 0.46 0.45 0.44 0.44 0.44 0.45 0.46 0.54 0.67 0.79 0.86 1.04 1.16 0.98 0.64 0.36 0.46 0.44 0.50 0.53 0.55 0.48 0.54 0.47 0.46 0.49 0.43 0.52 0.51 0.45 0.43 0.41 0.55 0.61 0.57 0.55 0.54 0.51 0.44 0.34 0.34 0.35
0.49 0.50 0.46 0.41 0.38 0.39 0.41 0.43 0.44 0.45 0.45 0.46 0.53 0.60 0.67 0.82 0.96 1.07 0.74 0.43 0.41 0.45 0.50 0.48 0.57 0.49 0.49 0.55 0.55 0.54 0.48 0.46 0.50 0.54 0.44 0.44 0.42 0.59 0.62 0.62 0.63 0.53 0.45 0.56 0.47 0.47 0.38
0.50 0.48 0.47 0.47 0.47 0.46 0.45 0.44 0.45 0.48 0.49 0.49 0.45 0.45 0.45 0.76 0.92 0.86 0.60 0.45 0.49 0.57 0.57 0.55 0.49 0.54 0.44 0.50 0.51 0.55 0.54 0.55 0.55 0.61 0.64 0.52 0.42 0.55 0.59 0.66 0.60 0.53 0.59 0.45 0.46 0.34 0.32
0.50 0.47 0.46 0.46 0.46 0.45 0.46 0.48 0.50 0.52 0.57 0.55 0.43 0.33 0.41 0.65 0.79 0.64 0.48 0.49 0.54 0.60 0.63 0.55 0.47 0.53 0.52 0.50 0.51 0.53 0.51 0.57 0.62 0.63 0.67 0.60 0.55 0.52 0.56 0.51 0.47 0.46 0.46 0.49 0.50 0.44 0.33
0.48 0.48 0.48 0.49 0.49 0.48 0.48 0.51 0.55 0.55 0.58 0.55 0.41 0.24 0.43 0.65 0.46 0.53 0.48 0.54 0.61 0.58 0.65 0.62 0.58 0.59 0.54 0.56 0.54 0.55 0.53 0.58 0.67 0.66 0.59 0.64 0.60 0.50 0.48 0.54 0.56 0.50 0.46 0.48 0.40 0.38 0.43
0.48 0.48 0.49 0.49 0.48 0.49 0.54 0.55 0.56 0.59 0.60 0.51 0.34 0.27 0.45 0.62 0.35 0.41 0.51 0.54 0.60 0.59 0.58 0.61 0.58 0.60 0.62 0.58 0.52 0.57 0.58 0.68 0.68 0.65 0.59 0.64 0.56 0.45 0.48 0.50 0.52 0.45 0.49 0.50 0.51 0.51 0.41
0.49 0.49 0.50 0.49 0.50 0.52 0.55 0.60 0.63 0.63 0.64 0.55 0.38 0.23 0.31 0.49 0.54 0.46 0.45 0.46 0.49 0.63 0.58 0.61 0.63 0.66 0.60 0.59 0.65 0.58 0.58 0.65 0.67 0.67 0.69 0.68 0.60 0.49 0.40 0.44 0.51 0.45 0.49 0.52 0.49 0.44 0.42
0.51 0.52 0.50 0.49 0.52 0.54 0.58 0.63 0.66 0.66 0.68 0.55 0.41 0.32 0.29 0.26 0.35 0.46 0.49 0.48 0.46 0.49 0.60 0.62 0.60 0.61 0.58 0.53 0.58 0.57 0.65 0.61 0.64 0.66 0.66 0.62 0.50 0.56 0.56 0.56 0.54 0.51 0.49 0.50 0.48 0.50 0.43
0.52 0.50 0.50 0.51 0.54 0.56 0.62 0.66 0.66 0.67 0.67 0.53 0.34 0.36 0.40 0.28 0.34 0.41 0.43 0.42 0.44 0.50 0.54 0.52 0.53 0.59 0.63 0.56 0.58 0.55 0.62 0.61 0.59 0.62 0.62 0.63 0.51 0.54 0.51 0.57 0.55 0.50 0.50 0.51 0.51 0.48 0.45
0.52 0.51 0.49 0.51 0.53 0.60 0.65 0.67 0.66 0.66 0.66 0.49 0.48 0.52 0.45 0.32 0.33 0.37 0.40 0.43 0.42 0.52 0.55 0.57 0.55 0.59 0.59 0.65 0.70 0.73 0.73 0.68 0.66 0.60 0.58 0.57 0.53 0.48 0.41 0.49 0.47 0.39 0.45 0.48 0.49 0.48 0.45
0.52 0.51 0.50 0.51 0.55 0.63 0.67 0.66 0.67 0.68 0.65 0.58 0.51 0.47 0.43 0.29 0.31 0.33 0.44 0.43 0.40 0.48 0.46 0.56 0.62 0.60 0.67 0.78 0.77 0.74 0.70 0.68 0.66 0.64 0.64 0.55 0.52 0.48 0.39 0.41 0.29 0.41 0.46 0.47 0.42 0.41 0.40
0.52 0.51 0.49 0.49 0.58 0.64 0.66 0.66 0.69 0.70 0.72 0.64 0.60 0.50 0.44 0.33 0.33 0.32 0.38 0.38 0.41 0.49 0.52 0.54 0.63 0.70 0.74 0.69 0.55 0.48 0.46 0.49 0.51 0.57 0.58 0.59 0.52 0.42 0.35 0.34 0.35 0.35 0.34 0.35 0.33 0.32 0.33
0.53 0.52 0.49 0.49 0.58 0.66 0.66 0.67 0.69 0.73 0.70 0.74 0.63 0.59 0.53 0.39 0.37 0.46 0.41 0.38 0.37 0.40 0.47 0.54 0.68 0.75 0.71 0.59 0.48 0.37 0.34 0.39 0.38 0.43 0.55 0.54 0.53 0.43 0.36 0.30 0.26 0.34 0.33 0.34 0.32 0.24 0.28
0.52 0.49 0.46 0.52 0.58 0.66 0.67 0.68 0.70 0.73 0.73 0.73 0.68 0.69 0.57 0.44 0.49 0.51 0.45 0.44 0.48 0.43 0.41 0.49 0.55 0.56 0.64 0.51 0.41 0.38 0.35 0.44 0.35 0.36 0.37 0.40 0.40 0.35 0.34 0.31 0.32 0.34 0.35 0.33 0.23 0.22 0.26
0.51 0.47 0.44 0.52 0.60 0.65 0.67 0.70 0.70 0.73 0.76 0.71 0.66 0.72 0.54 0.47 0.51 0.54 0.55 0.51 0.49 0.47 0.40 0.47 0.48 0.50 0.50 0.44 0.42 0.38 0.36 0.40 0.39 0.41 0.39 0.36 0.34 0.32 0.34 0.29 0.25 0.33 0.30 0.23 0.24 0.27 0.25
0.50 0.45 0.47 0.49 0.59 0.65 0.67 0.69 0.70 0.71 0.74 0.74 0.62 0.70 0.63 0.51 0.50 0.61 0.59 0.60 0.56 0.53 0.45 0.51 0.46 0.47 0.50 0.46 0.45 0.43 0.37 0.41 0.38 0.31 0.44 0.34 0.38 0.34 0.34 0.32 0.36 0.33 0.29 0.29 0.27 0.25 0.23

GFSGBSN_prec_pwat_198.txt.gz
Precipitable_Water
0.47 0.44 0.44 0.46 0.48 0.49 0.47 0.47 0.57 0.75 0.86 1.19 1.30 1.42 1.37 1.15 1.10 0.86 0.71 0.64 0.70 0.75 0.76 0.78 0.82 0.80 0.67 0.48 0.39 0.65 0.72 0.65 0.67 0.62 0.51 0.49 0.45 0.44 0.36 0.39 0.44 0.42 0.44 0.49 0.51 0.50 0.51
0.43 0.45 0.46 0.46 0.43 0.47 0.49 0.48 0.48 0.62 0.78 0.90 1.13 1.30 1.43 1.37 1.14 1.07 0.88 0.70 0.68 0.73 0.77 0.79 0.83 0.83 0.59 0.34 0.57 0.58 0.58 0.67 0.63 0.62 0.56 0.55 0.50 0.55 0.46 0.44 0.46 0.51 0.49 0.49 0.50 0.50 0.56
0.53 0.51 0.50 0.49 0.46 0.45 0.50 0.52 0.50 0.51 0.60 0.77 0.96 1.15 1.29 1.48 1.37 1.09 0.98 0.86 0.72 0.74 0.78 0.81 0.83 0.76 0.56 0.38 0.59 0.66 0.66 0.59 0.71 0.70 0.60 0.65 0.66 0.57 0.55 0.47 0.59 0.54 0.45 0.50 0.48 0.51 0.51
0.53 0.53 0.53 0.54 0.53 0.52 0.49 0.51 0.52 0.53 0.55 0.61 0.76 0.89 1.25 1.28 1.44 1.33 1.09 0.96 0.83 0.78 0.81 0.86 0.86 0.72 0.43 0.65 0.64 0.59 0.64 0.61 0.62 0.71 0.72 0.74 0.74 0.62 0.59 0.63 0.56 0.47 0.48 0.36 0.44 0.50 0.52
0.56 0.55 0.56 0.56 0.55 0.55 0.55 0.53 0.51 0.52 0.53 0.55 0.62 0.84 1.03 1.23 1.29 1.39 1.26 0.97 0.93 0.86 0.87 0.90 0.75 0.64 0.39 0.66 0.50 0.52 0.61 0.53 0.57 0.62 0.71 0.77 0.72 0.59 0.60 0.49 0.43 0.44 0.31 0.37 0.43 0.50 0.49
0.59 0.57 0.56 0.56 0.57 0.56 0.56 0.58 0.55 0.48 0.49 0.52 0.57 0.71 0.89 1.12 1.27 1.38 1.42 1.16 0.97 0.99 0.92 0.92 0.80 0.54 0.51 0.43 0.47 0.51 0.56 0.57 0.52 0.55 0.57 0.60 0.58 0.48 0.49 0.43 0.26 0.29 0.34 0.39 0.38 0.48 0.51
0.59 0.59 0.58 0.56 0.58 0.58 0.57 0.58 0.61 0.55 0.48 0.51 0.56 0.62 0.75 1.11 1.14 1.28 1.33 1.22 0.78 0.72 0.75 0.52 0.50 0.47 0.49 0.54 0.64 0.49 0.55 0.49 0.49 0.47 0.34 0.48 0.39 0.33 0.36 0.39 0.40 0.41 0.40 0.39 0.42 0.50 0.48
0.59 0.55 0.54 0.52 0.52 0.54 0.57 0.57 0.60 0.62 0.54 0.50 0.54 0.59 0.71 0.84 1.07 1.25 1.27 0.96 0.81 0.66 0.56 0.71 0.64 0.61 0.53 0.61 0.46 0.49 0.63 0.43 0.39 0.31 0.42 0.41 0.31 0.41 0.41 0.45 0.45 0.44 0.42 0.40 0.46 0.51 0.50
0.58 0.56 0.53 0.51 0.52 0.53 0.53 0.55 0.57 0.61 0.60 0.51 0.54 0.56 0.61 0.72 0.98 1.14 1.07 1.01 1.11 0.93 0.54 0.56 0.60 0.55 0.52 0.58 0.46 0.48 0.58 0.53 0.34 0.37 0.37 0.31 0.34 0.43 0.43 0.42 0.41 0.42 0.39 0.39 0.43 0.50 0.53
0.58 0.53 0.48 0.46 0.42 0.46 0.50 0.52 0.52 0.53 0.54 0.49 0.48 0.56 0.59 0.71 0.74 0.96 0.95 1.11 1.16 1.03 0.54 0.49 0.56 0.58 0.56 0.57 0.43 0.54 0.66 0.58 0.51 0.37 0.40 0.39 0.45 0.43 0.43 0.40 0.45 0.36 0.46 0.48 0.47 0.47 0.38
0.59 0.58 0.55 0.49 0.44 0.40 0.43 0.45 0.46 0.45 0.50 0.47 0.47 0.54 0.58 0.71 0.72 0.61 0.85 1.15 1.17 0.95 0.30 0.54 0.57 0.79 0.56 0.45 0.39 0.43 0.62 0.56 0.43 0.44 0.47 0.36 0.38 0.39 0.39 0.40 0.50 0.41 0.52 0.50 0.51 0.48 0.46
0.57 0.57 0.55 0.54 0.49 0.40 0.40 0.40 0.40 0.43 0.41 0.47 0.46 0.51 0.59 0.61 0.77 0.81 0.87 1.09 0.98 0.47 0.28 0.46 0.59 0.58 0.52 0.44 0.41 0.43 0.45 0.59 0.52 0.45 0.44 0.43 0.58 0.53 0.47 0.50 0.57 0.59 0.55 0.54 0.53 0.51 0.38
0.56 0.56 0.55 0.51 0.46 0.42 0.43 0.44 0.42 0.43 0.44 0.45 0.46 0.48 0.55 0.59 0.52 0.90 0.94 0.82 0.46 0.33 0.50 0.41 0.49 0.56 0.48 0.43 0.43 0.43 0.38 0.45 0.39 0.36 0.36 0.47 0.46 0.56 0.54 0.49 0.59 0.56 0.50 0.42 0.40 0.40 0.34
0.53 0.53 0.50 0.48 0.47 0.48 0.50 0.48 0.47 0.48 0.48 0.47 0.48 0.47 0.49 0.51 0.65 0.86 0.84 0.53 0.33 0.43 0.43 0.47 0.52 0.55 0.48 0.53 0.47 0.45 0.41 0.40 0.47 0.39 0.36 0.33 0.32 0.47 0.57 0.48 0.47 0.52 0.53 0.43 0.33 0.36 0.38
0.48 0.49 0.50 0.49 0.47 0.46 0.43 0.43 0.42 0.43 0.45 0.46 0.48 0.43 0.39 0.43 0.58 0.79 0.54 0.35 0.37 0.45 0.47 0.47 0.51 0.49 0.49 0.52 0.49 0.50 0.45 0.41 0.44 0.45 0.32 0.36 0.37 0.48 0.51 0.54 0.55 0.51 0.46 0.56 0.47 0.51 0.43
0.49 0.49 0.50 0.48 0.48 0.47 0.47 0.47 0.48 0.48 0.47 0.49 0.43 0.38 0.29 0.42 0.57 0.64 0.43 0.34 0.44 0.55 0.54 0.53 0.45 0.49 0.42 0.47 0.47 0.47 0.47 0.48 0.46 0.51 0.49 0.41 0.32 0.43 0.47 0.57 0.58 0.55 0.58 0.45 0.51 0.36 0.34
0.50 0.49 0.49 0.49 0.47 0.47 0.47 0.48 0.48 0.48 0.50 0.52 0.43 0.29 0.33 0.42 0.54 0.46 0.31 0.36 0.47 0.60 0.59 0.50 0.49 0.48 0.47 0.46 0.51 0.45 0.44 0.53 0.54 0.53 0.58 0.49 0.41 0.40 0.49 0.46 0.46 0.51 0.50 0.52 0.54 0.49 0.37
0.50 0.50 0.49 0.49 0.48 0.48 0.50 0.51 0.50 0.52 0.54 0.53 0.40 0.24 0.43 0.51 0.27 0.37 0.33 0.40 0.47 0.55 0.61 0.56 0.55 0.57 0.53 0.53 0.51 0.50 0.44 0.48 0.62 0.59 0.50 0.51 0.47 0.37 0.42 0.53 0.60 0.57 0.51 0.52 0.43 0.40 0.45
0.45 0.46 0.47 0.48 0.50 0.50 0.51 0.51 0.53 0.56 0.57 0.50 0.34 0.32 0.47 0.49 0.21 0.27 0.37 0.40 0.43 0.51 0.55 0.54 0.50 0.53 0.59 0.56 0.49 0.53 0.56 0.67 0.67 0.65 0.54 0.58 0.49 0.41 0.44 0.53 0.57 0.50 0.55 0.54 0.54 0.52 0.41
0.49 0.50 0.50 0.50 0.52 0.52 0.52 0.54 0.54 0.57 0.61 0.55 0.38 0.25 0.33 0.37 0.34 0.30 0.29 0.34 0.40 0.50 0.53 0.57 0.51 0.55 0.52 0.56 0.60 0.52 0.54 0.64 0.68 0.67 0.71 0.69 0.56 0.49 0.38 0.44 0.53 0.47 0.51 0.54 0.52 0.44 0.43
0.53 0.52 0.53 0.52 0.52 0.51 0.52 0.56 0.56 0.63 0.64 0.56 0.39 0.29 0.31 0.22 0.21 0.24 0.34 0.33 0.37 0.39 0.53 0.51 0.54 0.52 0.49 0.48 0.54 0.55 0.60 0.61 0.67 0.68 0.69 0.67 0.53 0.58 0.58 0.57 0.55 0.53 0.50 0.52 0.48 0.47 0.44
0.53 0.53 0.52 0.52 0.52 0.53 0.58 0.57 0.61 0.64 0.67 0.50 0.35 0.32 0.36 0.25 0.26 0.22 0.22 0.29 0.31 0.42 0.48 0.51 0.49 0.51 0.54 0.49 0.52 0.53 0.60 0.60 0.58 0.64 0.64 0.67 0.54 0.59 0.54 0.59 0.56 0.51 0.52 0.53 0.51 0.50 0.49
0.52 0.51 0.51 0.52 0.54 0.56 0.57 0.59 0.63 0.67 0.64 0.46 0.48 0.49 0.38 0.31 0.28 0.25 0.19 0.23 0.32 0.40 0.52 0.56 0.53 0.52 0.55 0.55 0.62 0.66 0.72 0.71 0.68 0.61 0.58 0.59 0.56 0.51 0.43 0.53 0.54 0.45 0.49 0.51 0.52 0.53 0.51
0.50 0.51 0.51 0.54 0.55 0.56 0.56 0.61 0.66 0.66 0.64 0.54 0.51 0.48 0.37 0.26 0.28 0.25 0.25 0.26 0.38 0.44 0.44 0.56 0.59 0.57 0.64 0.75 0.74 0.71 0.70 0.69 0.70 0.68 0.68 0.57 0.55 0.52 0.42 0.45 0.33 0.45 0.56 0.55 0.51 0.56 0.57
0.50 0.51 0.55 0.56 0.55 0.54 0.61 0.64 0.66 0.66 0.66 0.59 0.58 0.48 0.38 0.29 0.33 0.31 0.30 0.25 0.36 0.45 0.47 0.48 0.57 0.65 0.72 0.67 0.54 0.48 0.48 0.50 0.53 0.60 0.62 0.64 0.55 0.46 0.38 0.36 0.40 0.41 0.43 0.48 0.48 0.47 0.57
0.51 0.54 0.54 0.54 0.51 0.59 0.63 0.65 0.67 0.69 0.69 0.64 0.60 0.60 0.47 0.34 0.31 0.34 0.31 0.29 0.30 0.39 0.45 0.50 0.65 0.72 0.70 0.57 0.49 0.37 0.34 0.39 0.39 0.45 0.58 0.58 0.57 0.49 0.39 0.33 0.29 0.39 0.43 0.54 0.52 0.39 0.50
0.52 0.54 0.53 0.50 0.56 0.60 0.65 0.68 0.69 0.70 0.71 0.68 0.61 0.65 0.52 0.37 0.36 0.45 0.32 0.32 0.39 0.41 0.41 0.47 0.52 0.55 0.63 0.49 0.41 0.37 0.35 0.45 0.36 0.37 0.40 0.43 0.45 0.40 0.39 0.35 0.39 0.45 0.43 0.46 0.35 0.34 0.41
0.53 0.52 0.48 0.52 0.57 0.65 0.66 0.68 0.69 0.71 0.71 0.70 0.62 0.71 0.55 0.43 0.40 0.48 0.46 0.36 0.39 0.41 0.36 0.45 0.45 0.47 0.47 0.42 0.41 0.40 0.37 0.41 0.40 0.42 0.41 0.39 0.38 0.37 0.39 0.34 0.31 0.46 0.39 0.34 0.39 0.42 0.39
0.50 0.47 0.48 0.53 0.61 0.65 0.66 0.68 0.69 0.69 0.72 0.71 0.57 0.71 0.68 0.52 0.48 0.60 0.61 0.58 0.55 0.46 0.39 0.46 0.42 0.41 0.48 0.44 0.44 0.44 0.38 0.40 0.39 0.33 0.46 0.36 0.42 0.39 0.41 0.39 0.47 0.44 0.41 0.43 0.42 0.36 0.33

GFSGBSN_prec_pwat_201.txt.gz
Precipitable_Water
0.47 0.44 0.44 0.43 0.43 0.43 0.43 0.43 0.45 0.44 0.50 0.63 0.84 0.98 1.14 1.24 1.32 1.18 1.09 0.93 0.81 0.71 0.70 0.73 0.77 0.78 0.69 0.48 0.40 0.62 0.71 0.66 0.63 0.61 0.45 0.42 0.40 0.39 0.32 0.35 0.39 0.35 0.35 0.41 0.43 0.46 0.47
0.54 0.51 0.47 0.47 0.49 0.46 0.43 0.43 0.44 0.45 0.45 0.45 0.61 0.77 0.84 1.08 1.20 1.32 1.20 1.08 0.90 0.79 0.75 0.77 0.78 0.82 0.57 0.32 0.57 0.60 0.60 0.65 0.59 0.60 0.55 0.52 0.46 0.50 0.41 0.39 0.39 0.43 0.42 0.41 0.45 0.44 0.47
0.56 0.58 0.56 0.54 0.50 0.49 0.48 0.47 0.44 0.45 0.47 0.46 0.47 0.52 0.68 0.95 1.07 1.21 1.33 1.24 1.04 0.88 0.81 0.84 0.84 0.76 0.52 0.35 0.57 0.62 0.62 0.56 0.67 0.62 0.56 0.61 0.61 0.52 0.50 0.40 0.51 0.46 0.38 0.43 0.42 0.43 0.43
0.56 0.57 0.57 0.54 0.52 0.52 0.51 0.51 0.51 0.48 0.46 0.48 0.48 0.49 0.52 0.76 0.96 1.13 1.21 1.34 1.24 0.96 0.86 0.90 0.92 0.79 0.43 0.62 0.61 0.55 0.61 0.56 0.63 0.69 0.68 0.72 0.69 0.59 0.53 0.55 0.50 0.42 0.43 0.31 0.38 0.43 0.45
0.56 0.58 0.59 0.57 0.56 0.55 0.53 0.52 0.51 0.52 0.50 0.46 0.46 0.46 0.48 0.54 0.79 0.97 1.16 1.23 1.35 1.17 0.94 0.96 0.89 0.70 0.45 0.68 0.45 0.50 0.56 0.47 0.56 0.63 0.67 0.78 0.70 0.55 0.53 0.42 0.37 0.42 0.28 0.30 0.32 0.43 0.42
0.57 0.60 0.60 0.60 0.58 0.55 0.54 0.54 0.54 0.54 0.54 0.51 0.46 0.47 0.49 0.54 0.62 0.85 1.04 1.21 1.28 1.29 1.05 0.98 0.92 0.69 0.55 0.45 0.49 0.47 0.53 0.54 0.51 0.55 0.54 0.57 0.61 0.48 0.44 0.40 0.22 0.25 0.28 0.32 0.31 0.37 0.41
0.56 0.59 0.60 0.60 0.59 0.59 0.57 0.58 0.56 0.58 0.58 0.55 0.53 0.47 0.49 0.53 0.56 0.77 0.98 1.01 0.93 0.88 0.88 0.63 0.57 0.57 0.53 0.62 0.65 0.51 0.53 0.47 0.51 0.50 0.37 0.48 0.39 0.31 0.37 0.38 0.36 0.35 0.33 0.31 0.36 0.41 0.39
0.56 0.57 0.59 0.57 0.56 0.54 0.54 0.53 0.55 0.56 0.59 0.57 0.56 0.51 0.46 0.48 0.54 0.70 0.83 0.79 0.83 0.96 0.72 0.85 0.71 0.65 0.63 0.63 0.50 0.53 0.61 0.40 0.38 0.29 0.41 0.40 0.27 0.35 0.41 0.40 0.40 0.38 0.33 0.33 0.38 0.41 0.42
0.54 0.55 0.58 0.58 0.56 0.54 0.55 0.55 0.54 0.53 0.56 0.57 0.57 0.54 0.45 0.48 0.55 0.62 0.70 0.66 0.99 0.99 0.68 0.70 0.71 0.67 0.65 0.68 0.52 0.46 0.54 0.46 0.35 0.31 0.32 0.26 0.28 0.40 0.39 0.35 0.34 0.36 0.34 0.33 0.33 0.41 0.43
0.53 0.55 0.54 0.57 0.53 0.50 0.49 0.46 0.47 0.49 0.52 0.54 0.55 0.54 0.48 0.47 0.44 0.51 0.58 0.78 0.89 0.98 0.51 0.53 0.66 0.70 0.67 0.69 0.51 0.57 0.63 0.50 0.43 0.30 0.34 0.34 0.35 0.35 0.34 0.28 0.35 0.29 0.39 0.39 0.40 0.40 0.29
0.54 0.54 0.54 0.57 0.57 0.54 0.48 0.44 0.42 0.42 0.48 0.49 0.52 0.53 0.48 0.48 0.49 0.44 0.48 0.83 0.98 0.84 0.26 0.50 0.63 0.87 0.72 0.57 0.51 0.47 0.68 0.66 0.42 0.37 0.39 0.27 0.33 0.32 0.32 0.27 0.35 0.29 0.42 0.42 0.47 0.42 0.40
0.53 0.54 0.56 0.56 0.57 0.56 0.55 0.47 0.40 0.40 0.39 0.44 0.42 0.46 0.48 0.43 0.48 0.50 0.67 0.78 0.81 0.38 0.24 0.45 0.62 0.58 0.61 0.54 0.49 0.56 0.49 0.68 0.61 0.49 0.43 0.30 0.44 0.39 0.28 0.37 0.38 0.46 0.47 0.48 0.47 0.43 0.29
0.53 0.53 0.54 0.55 0.55 0.55 0.51 0.47 0.43 0.43 0.42 0.41 0.42 0.43 0.45 0.48 0.35 0.60 0.76 0.65 0.37 0.25 0.46 0.42 0.47 0.52 0.48 0.50 0.47 0.47 0.45 0.45 0.42 0.37 0.34 0.42 0.41 0.52 0.46 0.37 0.43 0.48 0.44 0.36 0.33 0.32 0.24
0.52 0.52 0.53 0.54 0.55 0.51 0.50 0.49 0.48 0.49 0.50 0.50 0.46 0.47 0.46 0.47 0.50 0.57 0.57 0.44 0.23 0.34 0.41 0.47 0.43 0.50 0.45 0.51 0.53 0.45 0.44 0.41 0.49 0.38 0.32 0.30 0.28 0.44 0.54 0.45 0.36 0.42 0.45 0.32 0.24 0.26 0.27
0.50 0.49 0.48 0.48 0.50 0.52 0.51 0.49 0.48 0.46 0.44 0.42 0.45 0.45 0.40 0.39 0.48 0.54 0.39 0.25 0.27 0.34 0.34 0.32 0.37 0.43 0.44 0.51 0.50 0.49 0.45 0.39 0.44 0.43 0.29 0.30 0.28 0.43 0.46 0.51 0.49 0.43 0.42 0.46 0.39 0.41 0.34
0.52 0.52 0.51 0.51 0.51 0.53 0.52 0.50 0.49 0.49 0.51 0.50 0.41 0.36 0.31 0.43 0.47 0.46 0.33 0.25 0.34 0.50 0.44 0.31 0.30 0.45 0.39 0.43 0.45 0.48 0.45 0.46 0.42 0.49 0.44 0.37 0.29 0.38 0.42 0.54 0.52 0.45 0.49 0.40 0.45 0.31 0.27
0.49 0.50 0.50 0.51 0.51 0.52 0.51 0.48 0.48 0.48 0.49 0.50 0.44 0.30 0.35 0.43 0.48 0.32 0.20 0.27 0.34 0.47 0.52 0.45 0.37 0.41 0.44 0.45 0.46 0.44 0.44 0.47 0.49 0.50 0.51 0.41 0.35 0.36 0.45 0.42 0.37 0.46 0.42 0.46 0.45 0.42 0.30
0.50 0.49 0.48 0.49 0.48 0.49 0.50 0.49 0.49 0.52 0.55 0.50 0.40 0.23 0.42 0.50 0.25 0.25 0.17 0.25 0.35 0.42 0.53 0.51 0.51 0.46 0.46 0.47 0.47 0.47 0.43 0.48 0.58 0.54 0.46 0.44 0.41 0.35 0.39 0.50 0.52 0.49 0.39 0.41 0.33 0.33 0.38
0.45 0.44 0.44 0.46 0.48 0.48 0.50 0.52 0.52 0.53 0.55 0.48 0.33 0.32 0.46 0.45 0.21 0.19 0.20 0.19 0.27 0.35 0.43 0.49 0.46 0.43 0.52 0.47 0.44 0.47 0.46 0.57 0.63 0.59 0.51 0.55 0.44 0.35 0.40 0.50 0.55 0.49 0.51 0.50 0.47 0.46 0.37
0.49 0.52 0.52 0.53 0.51 0.51 0.52 0.55 0.55 0.53 0.56 0.53 0.35 0.25 0.34 0.38 0.34 0.26 0.19 0.17 0.21 0.31 0.34 0.43 0.50 0.52 0.47 0.49 0.54 0.46 0.49 0.57 0.63 0.63 0.64 0.63 0.50 0.42 0.34 0.35 0.49 0.45 0.47 0.50 0.48 0.41 0.39
0.52 0.52 0.54 0.54 0.53 0.53 0.54 0.56 0.54 0.55 0.55 0.52 0.38 0.29 0.31 0.22 0.23 0.25 0.27 0.22 0.17 0.24 0.38 0.48 0.43 0.47 0.47 0.45 0.48 0.46 0.57 0.61 0.64 0.67 0.66 0.62 0.48 0.49 0.47 0.48 0.48 0.46 0.46 0.48 0.47 0.45 0.45
0.54 0.54 0.54 0.54 0.54 0.53 0.54 0.53 0.54 0.55 0.58 0.47 0.35 0.32 0.37 0.29 0.29 0.27 0.26 0.20 0.21 0.21 0.25 0.33 0.39 0.46 0.51 0.43 0.43 0.41 0.50 0.56 0.55 0.63 0.64 0.69 0.52 0.55 0.48 0.53 0.52 0.47 0.50 0.51 0.52 0.54 0.54
0.53 0.54 0.53 0.53 0.54 0.53 0.53 0.54 0.56 0.57 0.59 0.46 0.47 0.48 0.40 0.32 0.28 0.27 0.22 0.20 0.17 0.26 0.32 0.28 0.32 0.44 0.48 0.49 0.54 0.56 0.59 0.61 0.62 0.56 0.58 0.61 0.58 0.53 0.43 0.55 0.54 0.45 0.46 0.51 0.54 0.57 0.55
0.52 0.52 0.52 0.53 0.53 0.54 0.56 0.57 0.58 0.59 0.60 0.55 0.50 0.48 0.36 0.24 0.29 0.23 0.24 0.24 0.22 0.23 0.25 0.33 0.33 0.36 0.50 0.65 0.65 0.65 0.65 0.64 0.66 0.66 0.65 0.58 0.57 0.53 0.43 0.49 0.34 0.49 0.63 0.61 0.55 0.56 0.59
0.53 0.52 0.52 0.54 0.57 0.57 0.57 0.55 0.57 0.60 0.63 0.57 0.56 0.47 0.38 0.26 0.28 0.28 0.27 0.24 0.26 0.28 0.28 0.36 0.41 0.47 0.59 0.55 0.46 0.45 0.46 0.49 0.52 0.60 0.63 0.65 0.57 0.46 0.40 0.39 0.45 0.46 0.48 0.53 0.50 0.47 0.57
0.53 0.53 0.56 0.57 0.56 0.53 0.54 0.57 0.60 0.64 0.66 0.62 0.58 0.57 0.45 0.32 0.26 0.34 0.29 0.29 0.24 0.23 0.25 0.35 0.52 0.58 0.60 0.54 0.45 0.33 0.31 0.38 0.38 0.46 0.58 0.59 0.59 0.49 0.41 0.35 0.30 0.40 0.48 0.58 0.58 0.39 0.56
0.54 0.56 0.53 0.51 0.51 0.56 0.62 0.64 0.65 0.67 0.69 0.65 0.59 0.64 0.49 0.35 0.38 0.35 0.31 0.29 0.32 0.31 0.26 0.29 0.48 0.50 0.60 0.46 0.38 0.36 0.35 0.45 0.36 0.37 0.38 0.42 0.45 0.40 0.39 0.36 0.40 0.48 0.49 0.57 0.38 0.35 0.54
0.52 0.49 0.48 0.52 0.56 0.60 0.63 0.65 0.66 0.66 0.67 0.66 0.60 0.67 0.52 0.40 0.42 0.42 0.38 0.34 0.39 0.36 0.25 0.35 0.41 0.45 0.43 0.39 0.39 0.37 0.38 0.42 0.42 0.44 0.40 0.37 0.38 0.38 0.39 0.35 0.30 0.48 0.46 0.41 0.48 0.50 0.51
0.46 0.48 0.50 0.52 0.56 0.61 0.63 0.65 0.66 0.67 0.69 0.71 0.58 0.69 0.67 0.48 0.44 0.50 0.47 0.49 0.46 0.41 0.33 0.41 0.39 0.46 0.45 0.43 0.42 0.43 0.37 0.41 0.38 0.31 0.45 0.36 0.41 0.40 0.42 0.38 0.49 0.49 0.48 0.52 0.49 0.48 0.46

GFSGBSN_prec_pwat_204.txt.gz
Precipitable_Water
0.56 0.55 0.56 0.51 0.47 0.44 0.44 0.45 0.42 0.41 0.42 0.41 0.46 0.61 0.76 0.93 1.00 1.15 1.24 1.20 1.12 1.04 0.83 0.75 0.84 0.85 0.73 0.46 0.37 0.62 0.65 0.64 0.58 0.57 0.48 0.40 0.35 0.36 0.30 0.32 0.34 0.30 0.28 0.34 0.36 0.37 0.39
0.53 0.57 0.55 0.58 0.55 0.53 0.51 0.48 0.44 0.43 0.41 0.41 0.42 0.42 0.52 0.67 0.80 0.99 1.12 1.25 1.29 1.11 1.00 0.82 0.83 0.89 0.66 0.33 0.55 0.58 0.62 0.64 0.58 0.52 0.53 0.48 0.40 0.45 0.39 0.36 0.34 0.37 0.35 0.36 0.39 0.37 0.39
0.52 0.55 0.54 0.57 0.58 0.56 0.52 0.51 0.48 0.47 0.45 0.43 0.43 0.44 0.43 0.44 0.58 0.81 1.03 1.11 1.23 1.30 1.14 0.95 0.88 0.82 0.62 0.42 0.59 0.59 0.57 0.56 0.63 0.58 0.48 0.59 0.59 0.49 0.47 0.38 0.47 0.41 0.31 0.36 0.34 0.36 0.38
0.48 0.56 0.55 0.58 0.58 0.55 0.53 0.52 0.51 0.49 0.49 0.48 0.46 0.43 0.42 0.43 0.45 0.55 0.76 1.02 1.09 1.18 1.32 1.07 0.96 0.83 0.49 0.74 0.69 0.56 0.56 0.53 0.58 0.62 0.62 0.68 0.70 0.57 0.50 0.52 0.46 0.37 0.36 0.24 0.28 0.35 0.40
0.48 0.54 0.60 0.58 0.62 0.60 0.57 0.55 0.53 0.51 0.50 0.52 0.50 0.46 0.42 0.42 0.45 0.47 0.56 0.81 0.95 1.20 1.32 1.24 0.95 0.76 0.48 0.74 0.58 0.56 0.55 0.44 0.49 0.56 0.62 0.70 0.71 0.57 0.51 0.38 0.34 0.39 0.26 0.23 0.25 0.37 0.39
0.44 0.52 0.59 0.59 0.63 0.63 0.61 0.58 0.55 0.53 0.53 0.53 0.52 0.50 0.49 0.46 0.46 0.48 0.54 0.69 0.82 1.08 1.16 1.17 1.00 0.67 0.60 0.54 0.60 0.55 0.55 0.51 0.45 0.49 0.53 0.55 0.58 0.49 0.45 0.36 0.21 0.26 0.25 0.27 0.26 0.33 0.38
0.43 0.51 0.57 0.59 0.63 0.61 0.60 0.60 0.61 0.58 0.56 0.56 0.56 0.55 0.54 0.51 0.44 0.46 0.52 0.58 0.47 0.63 0.89 0.68 0.61 0.61 0.60 0.66 0.70 0.59 0.60 0.51 0.48 0.43 0.36 0.50 0.38 0.29 0.34 0.39 0.37 0.32 0.30 0.28 0.32 0.38 0.36
0.50 0.54 0.57 0.58 0.61 0.61 0.61 0.59 0.56 0.54 0.55 0.54 0.57 0.58 0.55 0.51 0.48 0.44 0.51 0.42 0.44 0.64 0.62 0.81 0.74 0.76 0.70 0.69 0.55 0.61 0.69 0.46 0.41 0.29 0.39 0.42 0.29 0.33 0.40 0.41 0.38 0.35 0.31 0.31 0.37 0.40 0.37
0.50 0.51 0.54 0.58 0.60 0.61 0.58 0.57 0.56 0.57 0.55 0.54 0.54 0.55 0.56 0.51 0.48 0.39 0.36 0.39 0.69 0.79 0.51 0.58 0.72 0.70 0.73 0.76 0.55 0.53 0.67 0.52 0.43 0.35 0.36 0.28 0.24 0.37 0.37 0.33 0.31 0.32 0.31 0.34 0.33 0.37 0.38
0.47 0.50 0.52 0.55 0.56 0.59 0.56 0.53 0.53 0.51 0.51 0.50 0.51 0.52 0.53 0.52 0.37 0.41 0.32 0.49 0.70 0.71 0.36 0.40 0.50 0.56 0.74 0.74 0.56 0.64 0.67 0.58 0.50 0.41 0.36 0.37 0.35 0.34 0.33 0.28 0.32 0.24 0.38 0.37 0.35 0.33 0.23
0.49 0.51 0.51 0.51 0.52 0.54 0.57 0.54 0.48 0.46 0.44 0.43 0.44 0.48 0.52 0.53 0.39 0.34 0.43 0.58 0.72 0.77 0.19 0.39 0.45 0.71 0.63 0.62 0.60 0.61 0.70 0.65 0.46 0.45 0.45 0.30 0.32 0.33 0.33 0.29 0.37 0.25 0.36 0.33 0.33 0.32 0.32
0.50 0.50 0.50 0.53 0.54 0.55 0.58 0.56 0.56 0.53 0.45 0.45 0.41 0.46 0.49 0.50 0.47 0.41 0.48 0.59 0.64 0.34 0.18 0.31 0.43 0.43 0.48 0.53 0.55 0.62 0.61 0.70 0.65 0.54 0.52 0.34 0.44 0.42 0.29 0.37 0.38 0.38 0.36 0.37 0.37 0.34 0.24
0.51 0.52 0.53 0.54 0.55 0.56 0.55 0.56 0.57 0.53 0.46 0.43 0.40 0.43 0.47 0.49 0.33 0.49 0.51 0.44 0.25 0.19 0.43 0.35 0.33 0.37 0.32 0.33 0.37 0.54 0.51 0.53 0.48 0.42 0.41 0.41 0.36 0.46 0.42 0.34 0.42 0.39 0.33 0.26 0.24 0.26 0.19
0.51 0.51 0.52 0.52 0.53 0.54 0.55 0.56 0.53 0.50 0.51 0.51 0.51 0.49 0.48 0.47 0.49 0.50 0.44 0.30 0.16 0.16 0.27 0.48 0.43 0.41 0.32 0.31 0.34 0.39 0.43 0.45 0.55 0.51 0.39 0.38 0.30 0.35 0.46 0.35 0.32 0.37 0.34 0.23 0.19 0.20 0.22
0.53 0.52 0.50 0.49 0.49 0.50 0.51 0.53 0.54 0.53 0.52 0.49 0.46 0.43 0.44 0.45 0.50 0.50 0.31 0.18 0.19 0.22 0.25 0.34 0.39 0.38 0.37 0.39 0.36 0.39 0.39 0.44 0.49 0.54 0.37 0.39 0.36 0.44 0.45 0.49 0.42 0.37 0.34 0.31 0.31 0.34 0.27
0.50 0.51 0.52 0.53 0.53 0.52 0.52 0.52 0.54 0.54 0.52 0.51 0.45 0.41 0.35 0.44 0.50 0.39 0.24 0.18 0.23 0.32 0.39 0.38 0.32 0.37 0.30 0.34 0.34 0.36 0.35 0.45 0.48 0.53 0.55 0.42 0.36 0.45 0.46 0.56 0.56 0.43 0.38 0.32 0.37 0.23 0.23
0.52 0.52 0.51 0.50 0.51 0.52 0.52 0.52 0.54 0.53 0.51 0.51 0.43 0.33 0.40 0.48 0.46 0.30 0.16 0.16 0.21 0.29 0.33 0.35 0.34 0.38 0.38 0.35 0.34 0.31 0.33 0.38 0.43 0.47 0.57 0.50 0.43 0.40 0.43 0.44 0.38 0.47 0.45 0.43 0.39 0.35 0.23
0.49 0.49 0.49 0.48 0.48 0.47 0.50 0.51 0.52 0.51 0.51 0.49 0.40 0.25 0.45 0.50 0.26 0.25 0.17 0.15 0.17 0.24 0.36 0.41 0.41 0.37 0.40 0.42 0.37 0.36 0.33 0.31 0.44 0.46 0.44 0.49 0.44 0.36 0.41 0.49 0.51 0.46 0.38 0.37 0.29 0.26 0.33
0.49 0.48 0.47 0.47 0.47 0.46 0.48 0.49 0.50 0.52 0.52 0.47 0.35 0.34 0.49 0.47 0.19 0.18 0.20 0.17 0.18 0.16 0.24 0.27 0.32 0.44 0.48 0.41 0.36 0.36 0.35 0.42 0.47 0.49 0.46 0.52 0.44 0.34 0.37 0.47 0.53 0.45 0.44 0.45 0.43 0.38 0.30
0.53 0.52 0.51 0.52 0.53 0.53 0.50 0.50 0.51 0.52 0.52 0.52 0.37 0.25 0.33 0.36 0.31 0.24 0.22 0.18 0.17 0.21 0.21 0.27 0.33 0.38 0.41 0.41 0.44 0.34 0.33 0.44 0.52 0.55 0.56 0.57 0.49 0.42 0.32 0.33 0.46 0.44 0.47 0.49 0.45 0.37 0.29
0.53 0.53 0.53 0.54 0.54 0.56 0.54 0.55 0.54 0.55 0.56 0.52 0.38 0.28 0.30 0.21 0.24 0.26 0.26 0.24 0.21 0.19 0.24 0.25 0.25 0.28 0.33 0.33 0.42 0.38 0.38 0.44 0.52 0.53 0.56 0.55 0.44 0.49 0.46 0.47 0.47 0.42 0.44 0.44 0.43 0.39 0.38
0.51 0.53 0.54 0.55 0.55 0.55 0.53 0.52 0.54 0.55 0.56 0.48 0.34 0.30 0.35 0.29 0.29 0.27 0.26 0.21 0.19 0.20 0.26 0.24 0.22 0.26 0.30 0.31 0.39 0.41 0.49 0.44 0.45 0.52 0.51 0.62 0.47 0.51 0.45 0.51 0.47 0.44 0.48 0.46 0.47 0.46 0.49
0.54 0.50 0.51 0.53 0.55 0.55 0.54 0.52 0.53 0.54 0.56 0.43 0.43 0.43 0.36 0.31 0.29 0.26 0.21 0.21 0.19 0.23 0.22 0.27 0.24 0.29 0.33 0.34 0.41 0.50 0.59 0.60 0.52 0.49 0.48 0.56 0.52 0.48 0.39 0.50 0.49 0.41 0.39 0.47 0.49 0.53 0.50
0.54 0.53 0.53 0.53 0.52 0.52 0.52 0.52 0.53 0.54 0.56 0.50 0.46 0.44 0.34 0.24 0.28 0.25 0.26 0.27 0.23 0.23 0.19 0.23 0.28 0.28 0.29 0.51 0.55 0.59 0.58 0.60 0.56 0.57 0.62 0.54 0.51 0.50 0.41 0.48 0.31 0.42 0.58 0.54 0.52 0.55 0.57
0.53 0.53 0.53 0.52 0.54 0.56 0.57 0.56 0.57 0.58 0.59 0.56 0.54 0.45 0.36 0.26 0.30 0.29 0.30 0.29 0.29 0.28 0.24 0.24 0.28 0.31 0.45 0.40 0.35 0.35 0.39 0.46 0.52 0.57 0.58 0.60 0.52 0.43 0.38 0.38 0.45 0.47 0.52 0.53 0.51 0.47 0.58
0.53 0.53 0.55 0.56 0.55 0.55 0.55 0.54 0.55 0.57 0.58 0.57 0.55 0.56 0.43 0.31 0.26 0.33 0.30 0.31 0.25 0.24 0.25 0.24 0.29 0.34 0.39 0.46 0.35 0.27 0.27 0.37 0.34 0.40 0.55 0.54 0.56 0.46 0.40 0.34 0.31 0.40 0.51 0.63 0.65 0.44 0.65
0.52 0.50 0.50 0.51 0.52 0.53 0.56 0.59 0.60 0.62 0.63 0.61 0.56 0.62 0.47 0.34 0.38 0.37 0.31 0.29 0.33 0.30 0.24 0.26 0.26 0.28 0.35 0.32 0.33 0.29 0.30 0.41 0.32 0.33 0.35 0.40 0.43 0.38 0.37 0.36 0.40 0.50 0.53 0.62 0.42 0.39 0.58
0.48 0.49 0.50 0.51 0.51 0.55 0.58 0.61 0.63 0.65 0.65 0.62 0.56 0.64 0.51 0.38 0.41 0.44 0.41 0.36 0.36 0.33 0.26 0.26 0.28 0.29 0.31 0.26 0.33 0.32 0.31 0.38 0.34 0.36 0.36 0.34 0.34 0.35 0.38 0.35 0.29 0.51 0.53 0.45 0.51 0.53 0.55
0.48 0.49 0.49 0.48 0.49 0.51 0.55 0.59 0.62 0.64 0.68 0.67 0.52 0.65 0.65 0.47 0.42 0.53 0.50 0.48 0.45 0.40 0.35 0.39 0.33 0.27 0.28 0.38 0.35 0.35 0.30 0.33 0.35 0.28 0.41 0.30 0.34 0.32 0.36 0.34 0.46 0.49 0.49 0.55 0.53 0.51 0.54